EHI
1 1 0 0 0 0 0 0 0 0 0 0 1 1 1 0 0 0 0 2 8 10 5 4 7 7 5 5 5 4 4 3 2 2 1 0 0 0 0 0 0 0 0 0 0 0 0 0 0
1 0 0 0 0 0 0 0 0 0 0 0 0 0 0 0 0 0 0 5 14 16 8 6 10 10 7 5 4 4 4 3 3 2 1 0 0 0 0 0 0 0 0 0 0 0 0 0 0
0 0 0 0 0 0 0 0 0 0 0 0 0 0 0 0 0 0 2 12 24 22 12 10 14 15 12 7 5 4 4 4 3 2 1 0 0 0 0 0 0 0 0 0 0 0 0 0 0
0 0 0 0 0 0 0 0 0 0 0 0 0 0 0 0 1 3 9 23 33 28 17 15 19 20 16 10 6 4 3 3 2 1 0 0 0 0 0 0 0 0 0 0 0 0 0 0 0
0 0 0 0 0 0 0 0 0 0 1 1 1 0 0 1 3 10 19 30 37 33 24 19 22 23 19 13 8 5 2 1 1 1 0 0 0 0 0 0 0 0 0 0 0 0 0 0 0
0 0 0 0 0 0 0 0 1 1 1 2 1 0 0 1 7 17 27 33 36 36 29 23 22 22 20 16 11 7 3 1 0 1 1 0 0 0 0 0 0 0 0 0 0 0 0 0 0
0 0 0 0 0 0 0 0 1 2 2 2 1 0 1 3 10 23 32 34 34 33 29 24 19 18 17 15 11 7 4 1 0 1 1 0 0 0 0 0 0 0 0 0 0 0 0 0 0
0 0 0 0 0 0 0 0 1 3 4 2 1 1 4 10 18 30 38 36 31 27 23 19 15 13 12 11 9 7 4 2 0 0 1 0 0 0 0 0 0 0 0 0 0 0 0 0 0
0 0 0 0 0 0 0 0 1 4 5 3 2 5 17 29 36 41 43 39 33 28 20 14 12 11 10 8 6 5 4 1 0 0 1 0 0 0 0 0 0 0 0 0 0 0 0 0 0
0 0 0 0 0 0 0 1 2 4 6 5 7 20 40 50 49 45 42 38 36 32 24 15 13 13 12 8 5 3 2 0 0 0 0 0 0 0 0 0 0 0 0 0 0 0 0 0 0
0 0 0 0 0 1 2 2 3 4 5 7 18 40 59 60 50 41 34 31 31 30 25 19 17 17 14 9 5 3 1 0 0 0 0 0 0 0 0 0 0 0 0 0 0 0 0 0 0
0 0 0 0 1 2 3 4 5 4 4 11 31 55 64 59 46 33 26 23 23 25 23 21 20 19 14 9 7 4 1 0 0 0 0 0 0 0 0 0 0 0 0 0 0 0 0 0 0
0 0 0 1 2 4 5 6 6 5 5 15 38 59 63 56 44 30 23 20 19 21 22 24 23 18 13 10 9 5 1 0 0 0 0 0 0 0 0 0 0 0 0 0 0 0 0 0 0
0 0 0 1 2 4 7 7 5 7 10 21 40 56 58 53 45 36 29 25 21 18 20 24 24 18 12 11 9 5 1 0 0 0 0 0 0 0 0 0 0 0 0 0 0 0 0 0 0
0 0 0 0 1 3 5 5 5 9 16 26 37 46 49 47 44 41 38 32 23 17 16 20 22 18 12 10 7 3 1 1 1 0 0 0 0 0 0 0 0 0 0 0 0 0 0 0 0
0 0 0 0 0 1 2 3 5 11 19 26 32 35 36 37 37 38 41 37 28 20 17 18 20 17 12 8 4 2 1 0 0 0 0 0 0 0 0 0 0 0 0 0 0 0 0 0 0
0 0 0 0 0 0 0 2 5 11 19 27 29 29 28 28 28 31 39 42 36 29 24 22 20 15 10 6 3 1 0 0 0 0 0 0 0 0 0 0 0 0 0 0 0 0 0 0 0
0 0 0 0 0 0 1 3 6 11 19 26 28 27 26 25 25 28 37 45 45 39 34 29 23 16 9 5 2 0 0 0 0 0 0 0 0 0 0 0 0 0 0 0 0 0 0 0 0
0 0 0 0 0 0 1 3 7 12 18 23 25 26 26 27 28 30 38 46 48 44 39 36 29 20 11 7 3 1 0 0 0 0 0 0 0 0 0 0 0 0 0 0 0 0 0 0 0
0 0 0 0 0 0 1 2 5 10 15 20 23 25 29 32 34 37 43 48 49 45 40 37 32 24 16 10 6 3 0 0 0 0 0 0 0 0 0 1 0 0 0 0 0 0 0 0 0
0 0 0 0 0 0 0 1 2 6 12 18 22 26 31 38 42 45 49 50 48 44 39 35 32 26 18 12 8 4 1 1 1 1 1 0 0 1 1 1 0 0 0 0 0 0 0 0 0
0 0 0 0 0 0 0 0 1 3 8 15 22 28 33 38 45 49 50 48 46 41 37 34 31 26 19 14 10 6 3 2 2 2 1 0 0 1 1 0 0 0 0 0 0 0 0 0 0
0 0 0 0 0 0 0 0 1 2 5 12 23 32 34 36 43 47 46 44 42 38 33 30 27 23 19 15 12 8 5 3 3 3 2 0 0 1 1 0 0 0 0 0 0 0 0 0 0
0 0 0 0 0 0 0 0 0 1 2 8 22 31 34 35 40 44 42 39 38 33 27 23 22 20 18 16 13 9 6 4 3 3 2 0 0 0 0 0 0 0 0 0 0 0 0 0 0
0 0 0 0 0 0 0 0 0 0 0 5 18 27 30 34 40 42 38 34 32 28 22 19 18 18 17 15 13 9 6 4 3 3 1 0 0 0 0 0 0 0 0 0 0 0 0 0 0
0 0 0 0 0 0 0 0 0 0 1 6 16 25 28 31 38 40 34 29 28 25 20 17 17 16 15 14 11 8 6 4 3 2 1 0 0 0 0 0 0 0 0 0 0 0 0 0 0
0 0 0 0 0 0 0 0 0 1 3 9 19 25 27 29 33 35 33 30 29 26 20 17 15 15 14 12 9 7 5 3 1 1 0 0 0 0 0 0 0 0 0 0 0 0 0 0 0
0 0 0 0 0 0 0 0 0 1 4 11 20 25 27 28 29 31 32 31 29 26 21 16 14 13 13 12 9 5 3 1 0 0 0 0 0 0 0 0 0 0 0 0 0 0 0 0 0
0 0 0 0 0 0 0 0 0 1 4 10 16 21 25 26 27 27 28 28 27 26 23 18 13 10 10 10 8 4 2 1 0 0 0 0 0 0 0 0 0 0 0 0 0 0 0 0 0
0 0 0 0 0 0 0 0 0 0 3 9 13 18 21 23 25 25 24 24 24 25 24 21 14 8 7 7 6 3 1 0 0 0 0 0 0 0 0 0 0 0 0 0 0 0 0 0 0
Wind_Speed
3 3 3 2 5 6 4 4 2 2 3 3 5 6 7 4 2 3 3 8 12 11 8 12 14 14 14 14 14 14 14 14 14 14 14 14 13 13 13 13 13 13 13 13 13 14 13 13 13
2 3 1 4 7 4 4 3 3 3 3 4 6 6 6 5 4 7 5 8 13 11 8 9 15 14 14 14 13 13 14 14 14 13 13 13 13 13 13 13 13 13 13 14 13 13 13 13 13
2 2 3 5 4 3 1 1 2 3 2 3 4 5 5 4 6 5 6 12 11 9 7 10 15 14 14 14 13 13 13 13 13 13 12 12 12 12 13 13 13 13 13 13 13 13 13 13 13
2 3 5 6 2 2 3 2 2 2 3 5 4 6 5 4 5 7 13 14 12 8 7 10 15 14 14 13 13 12 12 12 12 12 12 12 12 12 12 12 13 13 13 13 13 13 12 12 12
3 5 7 4 2 2 2 2 2 2 2 3 4 5 4 4 10 14 13 13 12 8 6 9 15 14 13 13 12 12 12 12 12 12 11 11 11 11 12 12 12 13 12 12 12 12 11 11 11
5 5 6 2 3 2 1 2 3 3 2 3 4 5 3 4 11 13 12 10 9 9 7 8 15 14 13 13 12 12 12 11 11 11 11 11 11 11 11 11 12 12 12 11 11 11 10 10 10
5 5 3 1 1 2 1 2 3 3 3 2 4 6 3 5 8 11 10 9 8 7 6 6 7 9 12 13 12 11 11 11 11 11 10 10 10 10 10 10 10 11 11 10 10 10 9 9 10
4 5 3 1 1 2 2 2 2 4 3 3 4 7 7 8 11 11 10 8 7 6 5 5 5 5 5 6 11 11 11 10 10 10 10 10 10 9 9 8 9 10 10 10 10 10 9 9 10
4 6 1 2 3 3 2 2 2 3 5 2 3 4 8 17 16 13 11 8 8 8 5 5 5 5 5 5 7 8 9 9 9 8 10 8 4 4 5 6 8 9 9 9 9 9 9 9 8
5 3 3 4 4 3 3 4 5 4 3 2 4 7 17 17 16 15 15 13 12 10 8 5 5 5 5 5 4 3 3 4 3 3 5 4 3 3 4 4 7 7 8 8 8 8 8 6 4
2 3 3 3 3 3 3 2 4 6 4 7 10 16 19 18 15 14 13 13 12 10 9 7 6 5 5 3 3 2 2 3 3 4 4 4 3 2 2 2 2 3 5 4 5 5 3 3 3
1 3 4 3 2 2 4 4 3 5 6 6 13 19 20 19 17 15 14 12 10 10 9 7 7 5 5 3 3 3 3 2 2 3 4 3 2 2 2 1 2 2 2 2 2 2 3 3 3
1 4 4 4 3 3 3 4 4 4 3 9 15 18 18 17 14 11 9 9 9 9 8 8 7 6 5 4 4 4 3 3 3 2 3 3 2 2 1 1 1 1 1 2 2 2 2 2 3
2 4 6 4 1 1 3 2 2 4 7 12 15 16 16 15 13 10 10 10 10 10 9 7 8 7 6 5 4 3 3 3 3 2 3 4 3 3 2 1 1 1 1 1 1 2 2 1 2
2 4 7 4 1 1 4 1 4 4 9 12 13 13 12 11 11 12 12 11 10 10 8 8 8 7 7 6 5 4 3 3 3 3 3 3 3 3 3 2 1 1 1 2 2 2 2 2 2
4 5 4 6 3 1 4 4 4 5 10 10 10 10 9 8 9 9 9 8 9 9 9 9 9 8 8 6 5 4 4 4 3 3 3 4 4 4 3 3 2 2 1 2 2 2 2 1 1
6 3 3 7 3 1 2 4 3 5 9 9 8 8 8 7 6 7 8 9 10 10 10 9 8 9 8 7 5 4 4 4 3 3 3 4 5 5 4 3 2 2 2 2 2 2 2 2 1
0 1 3 5 5 2 1 3 1 3 6 7 7 7 7 7 8 6 7 8 8 8 9 9 8 8 7 5 4 3 3 3 3 4 4 5 4 5 4 3 3 3 2 2 2 2 2 2 2
2 0 4 6 4 1 1 2 1 2 4 5 6 6 7 6 5 5 6 7 8 8 9 9 9 8 7 5 5 4 4 3 3 4 5 5 5 5 5 4 3 3 3 3 3 2 2 2 2
1 2 4 6 4 1 1 2 2 1 4 5 7 6 6 5 4 5 6 7 8 9 9 9 9 8 8 6 4 3 3 3 3 2 3 5 5 5 5 5 4 4 3 3 3 3 2 1 2
2 3 4 3 5 5 3 5 3 1 0 1 3 5 6 8 8 7 7 7 7 8 8 8 8 8 7 6 4 3 2 2 2 2 3 4 5 5 5 6 5 5 4 4 4 4 5 3 1
4 5 5 2 2 3 2 1 5 2 2 3 4 5 7 7 7 7 7 7 8 7 7 6 7 7 6 6 6 6 5 4 5 4 3 3 4 5 5 5 6 5 4 4 5 4 3 4 3
6 0 1 0 2 1 3 2 7 2 4 7 7 7 7 7 7 8 8 8 7 6 6 6 6 6 6 6 7 6 4 3 2 3 4 3 3 3 4 5 5 5 4 5 5 4 4 3 4
3 5 6 6 5 1 2 2 7 4 7 6 5 6 6 6 7 6 5 6 5 5 5 5 6 5 6 6 6 6 6 5 4 4 4 3 2 2 3 4 5 5 4 5 5 5 5 4 3
4 6 5 5 5 4 3 2 9 7 7 7 7 6 7 7 7 7 7 6 6 7 6 6 6 6 6 6 6 6 6 6 6 5 5 4 3 3 4 4 4 4 4 4 4 4 4 4 4
5 9 8 5 4 4 3 4 8 5 5 4 5 5 6 7 7 7 7 7 7 7 7 6 6 5 6 6 5 4 5 4 3 4 4 4 4 4 4 4 4 4 4 4 4 3 4 4 4
7 4 7 8 3 0 5 7 9 2 2 1 3 6 7 8 8 7 7 7 6 7 7 6 6 5 5 5 4 4 4 4 4 4 4 3 3 3 3 4 4 4 4 4 4 3 4 4 4
6 10 7 7 6 2 4 4 6 6 4 2 4 6 6 6 6 7 7 7 6 6 5 5 5 5 4 4 4 3 3 3 3 3 4 4 4 3 4 4 4 4 4 4 4 4 4 4 4
5 5 6 6 6 7 3 8 8 8 6 6 7 6 6 7 7 7 6 6 6 5 5 5 5 4 4 3 3 3 2 2 2 2 3 3 3 3 4 4 4 4 4 4 4 4 4 5 4
5 8 9 7 4 5 5 10 6 6 5 6 5 4 5 6 6 6 6 6 6 6 5 5 4 4 4 3 3 3 2 2 2 1 2 2 3 3 3 3 3 4 4 4 5 5 5 5 4
Wind_Direction
183 145 135 104 57 47 24 348 17 51 51 61 97 99 105 92 133 143 119 133 131 136 141 140 135 128 124 119 116 114 113 113 113 113 112 112 112 111 110 109 108 108 107 106 106 106 107 107 108
150 152 110 62 72 54 342 339 45 54 118 110 85 84 80 72 74 105 127 138 135 135 135 140 138 132 128 124 120 117 116 115 115 115 114 113 113 112 111 110 109 108 107 107 106 106 106 107 108
177 161 85 68 78 137 237 303 94 80 77 74 82 73 81 108 121 128 143 138 131 132 133 147 140 137 132 129 125 122 120 119 118 117 116 115 114 112 111 109 109 107 106 106 106 105 104 107 109
114 56 53 65 73 226 212 196 139 97 39 47 91 77 69 92 129 133 137 137 131 130 135 150 143 141 137 133 131 128 125 123 120 118 117 116 115 113 111 110 108 107 106 105 105 105 105 107 108
64 73 60 45 327 278 224 177 149 106 60 57 84 85 58 33 109 127 136 139 137 135 140 149 146 145 142 138 136 132 129 125 124 123 120 118 117 114 112 111 110 108 107 106 106 105 105 106 110
55 62 73 36 323 315 245 163 133 102 93 86 87 89 62 109 124 135 136 136 139 140 141 147 151 150 148 145 142 137 133 131 129 126 124 122 120 118 116 113 112 111 108 107 106 105 105 109 112
90 81 98 125 314 322 201 152 147 129 124 133 118 102 106 137 136 133 129 128 130 134 133 136 149 154 155 151 147 143 139 138 134 130 129 127 124 122 120 116 115 112 111 110 108 105 102 107 113
110 95 74 44 227 263 176 130 139 133 131 114 117 139 165 162 137 124 122 125 130 130 132 134 136 138 141 147 152 149 146 144 140 138 136 132 129 125 121 114 115 114 112 111 109 104 99 100 110
84 71 67 217 203 246 179 146 137 106 112 114 123 154 151 140 137 134 136 141 152 154 145 142 139 136 134 142 157 152 150 149 144 142 140 124 94 96 107 119 122 119 115 111 107 102 96 93 104
81 104 231 219 201 206 198 176 158 122 122 120 87 99 127 142 148 153 159 165 171 171 168 157 151 145 142 155 138 132 129 125 111 105 107 98 94 98 109 133 132 126 117 111 106 100 89 81 82
120 193 247 253 216 190 178 175 149 138 191 195 164 148 148 154 160 165 170 174 176 174 174 166 158 149 147 141 133 122 113 111 109 111 111 107 96 87 79 72 86 85 89 75 80 78 73 83 93
179 259 249 258 207 176 176 164 157 189 216 177 155 153 156 165 172 176 177 177 173 174 178 168 164 157 156 142 137 130 127 127 128 128 127 119 109 100 100 90 84 74 77 84 77 81 83 91 109
262 287 284 264 260 194 161 172 178 227 192 124 139 154 167 173 177 179 177 174 173 178 179 174 168 166 159 149 155 150 146 148 146 142 141 139 137 139 131 120 110 109 101 103 100 92 92 104 125
276 281 296 297 268 183 155 177 157 229 144 137 151 166 175 178 175 172 173 179 181 182 181 176 176 173 164 162 161 157 155 153 152 163 165 160 158 156 158 152 144 141 133 127 122 121 114 111 124
310 341 344 352 10 184 117 340 225 189 144 151 163 171 177 180 177 184 184 183 184 181 177 181 183 176 173 169 169 164 163 159 172 178 177 176 169 165 165 166 182 187 148 131 117 107 96 104 112
31 34 351 316 350 27 126 243 245 157 152 163 169 170 175 181 185 187 182 180 178 175 178 186 191 181 179 175 170 163 168 170 181 180 181 189 181 170 165 172 190 182 149 136 133 128 111 102 111
28 27 328 312 330 20 155 245 254 156 160 169 171 172 173 173 186 187 184 181 178 178 178 185 187 181 181 175 169 169 168 171 178 178 184 192 186 175 168 180 191 168 150 155 164 133 130 134 134
338 4 321 295 300 349 258 259 262 155 159 168 171 171 174 180 195 188 182 179 172 174 174 182 183 180 172 162 153 159 169 179 181 185 192 188 186 179 170 178 182 165 157 162 150 131 112 120 139
148 275 291 275 287 316 266 277 265 148 152 169 180 180 181 189 185 162 167 169 163 169 174 181 182 177 169 165 169 175 189 188 193 197 194 188 187 181 174 180 174 174 178 178 161 137 130 117 125
172 300 296 301 339 44 40 359 331 156 193 186 187 186 180 176 170 165 164 167 172 177 178 179 182 178 179 180 173 170 164 181 190 195 192 190 188 185 185 181 180 178 171 168 167 150 138 138 148
229 215 242 275 342 20 58 355 340 327 15 174 186 181 180 185 186 180 173 175 170 176 182 183 183 181 181 171 148 131 118 121 156 189 202 202 192 192 189 185 180 181 176 182 184 171 162 164 171
255 229 212 244 33 330 39 288 291 285 286 242 218 194 191 189 181 176 175 176 178 181 178 176 176 178 175 167 168 168 176 185 195 190 193 194 194 197 193 188 184 185 183 185 191 182 174 159 173
215 164 140 122 137 30 17 128 284 306 258 247 226 209 194 187 177 179 183 180 177 172 171 169 166 174 173 175 180 180 186 190 178 167 176 191 197 203 196 189 186 189 190 190 188 177 180 175 172
162 69 53 47 70 39 288 170 275 242 228 242 224 207 188 179 172 172 164 152 156 157 161 165 168 175 175 180 185 189 187 180 175 180 184 193 198 204 200 190 189 192 192 191 191 187 184 187 178
108 88 35 9 19 259 291 220 252 255 238 227 224 206 178 171 162 157 156 158 161 165 168 167 172 178 180 184 192 197 194 187 193 192 192 193 197 202 206 199 191 190 196 192 183 183 192 190 187
163 137 152 182 209 272 319 243 259 270 276 243 206 180 162 164 160 161 166 169 173 172 170 170 175 182 182 186 194 196 192 192 199 196 191 196 203 205 197 193 189 188 189 193 183 189 200 197 202
137 164 152 125 143 343 291 292 302 307 339 71 149 159 172 169 163 163 163 171 174 171 173 176 174 178 182 185 183 187 190 190 194 197 196 197 199 197 188 191 190 193 193 193 185 197 201 193 203
138 141 108 119 141 218 290 284 258 268 255 219 183 181 178 163 159 158 161 168 168 161 157 159 164 171 173 172 180 187 192 195 188 180 190 191 193 189 175 186 187 192 197 197 193 200 199 195 206
111 105 106 109 142 151 219 267 232 228 219 209 210 194 176 168 163 159 160 158 147 137 140 147 153 150 152 161 162 165 172 173 168 182 190 187 187 184 182 183 186 193 198 198 195 202 194 199 211
160 162 146 147 189 166 167 261 265 235 219 201 201 185 164 156 150 149 149 143 141 144 146 152 156 148 150 149 141 148 145 142 156 183 185 173 178 181 183 181 188 197 200 196 195 202 201 202 213